K4CCC-9 Weather Reports


time (UTC)temp
C
wind
direction
speed
KPH
gust
KPH
rain 1hr
cm
rain 24hr
cm
rain mn
cm
humidity
%
barometer
mb
20260505184127 29 193 9.7 0.0 6.88 0.00 0.00 1015.9
20260505183626 28 173 11.3 0.0 6.88 0.00 0.00 1015.9
20260505183126 28 193 0.0 0.0 6.88 0.00 0.00 1015.9
20260505182626 29 170 0.0 0.0 6.88 0.00 0.00 1015.9
20260505182126 30 149 0.0 0.0 6.88 0.00 0.00 1016.0
20260505181628 30 149 4.8 0.0 6.88 0.00 0.00 1015.9
20260505181126 29 150 9.7 0.0 6.88 0.00 0.00 1015.9
20260505180626 30 198 8.0 0.0 6.88 0.00 0.00 1016.0
20260505180126 30 207 0.0 0.0 6.88 0.00 0.00 1016.0
20260505175626 29 138 3.2 0.0 6.88 0.00 0.00 1016.0
20260505175127 30 166 9.7 0.0 6.88 0.00 0.00 1016.0
20260505174627 29 122 0.0 0.0 6.88 0.00 0.00 1016.1
20260505174127 29 169 0.0 0.0 6.88 0.00 0.00 1016.2
20260505173627 28 169 9.7 0.0 6.88 0.00 0.00 1016.1
20260505173127 28 184 8.0 0.0 6.88 0.00 0.00 1016.1
20260505172627 28 217 0.0 0.0 6.88 0.00 0.00 1016.2
20260505172127 28 135 3.2 0.0 6.88 0.00 0.00 1016.3
20260505171627 28 266 4.8 0.0 6.88 0.00 0.00 1016.4
20260505171127 27 118 8.0 0.0 6.88 0.00 0.00 1016.6
20260505170627 27 169 6.4 0.0 6.88 0.00 0.00 1016.7
20260505170127 27 217 8.0 0.0 6.88 0.00 0.00 1016.5
20260505165627 28 238 0.0 0.0 6.88 0.00 0.00 1016.5
20260505165127 28 145 9.7 0.0 6.88 0.00 0.00 1016.6
20260505164627 28 125 0.0 0.0 6.88 0.00 0.00 1016.7
20260505164127 28 136 0.0 0.0 6.88 0.00 0.00 1016.7
20260505163627 26 316 9.7 0.0 6.88 0.00 0.00 1016.8
20260505163127 28 170 0.0 0.0 6.88 0.00 0.00 1016.9
20260505162628 28 197 8.0 0.0 6.88 0.00 0.00 1017.0
20260505162127 27 149 0.0 0.0 6.88 0.00 0.00 1017.0
20260505161627 26 246 0.0 0.0 6.88 0.00 0.00 1017.1
20260505161127 26 246 0.0 0.0 6.88 0.00 0.00 1017.2
20260505160627 27 297 11.3 0.0 6.88 0.00 0.00 1017.2
20260505160127 27 191 6.4 0.0 6.88 0.00 0.00 1017.3
20260505153127 27 165 6.4 0.0 6.88 0.00 0.00 1017.4
20260505152627 26 142 4.8 0.0 6.88 0.00 0.00 1017.5
20260505152127 26 127 4.8 0.0 6.88 0.00 0.00 1017.5
20260505151857 16 180 0.0 0.0 6.88 0.00 0.00 1017.1
20260505151627 24 160 6.4 0.0 6.88 0.00 0.00 1017.5
20260505151236 23 248 6.4 0.0 6.88 0.00 0.00 1017.4
20260505151127 23 248 6.4 0.0 6.88 0.00 0.00 1017.4
20260505150627 24 257 12.9 0.0 6.88 0.00 0.00 1017.5
20260505150127 24 160 0.0 0.0 6.88 0.00 0.00 1017.4
20260505140627 21 238 6.4 0.0 6.88 0.00 0.00 1017.3
20260505140127 21 211 4.8 0.0 6.88 0.00 0.00 1017.3
20260505130127 17 148 0.0 0.0 6.88 0.00 0.00 1017.4
20260505124627 16 226 0.0 0.0 6.88 0.00 0.00 1017.3
20260505124127 16 301 0.0 0.0 6.88 0.00 0.00 1017.4
20260505123627 16 210 0.0 0.0 6.88 0.00 0.00 1017.2
20260505123127 16 205 0.0 0.0 6.88 0.00 0.00 1017.2
20260505122627 16 205 0.0 0.0 6.88 0.00 0.00 1017.2
20260505122127 16 180 0.0 0.0 6.88 0.00 0.00 1017.1
20260505121627 16 180 0.0 0.0 6.88 0.00 0.00 1017.1
20260505121203 16 169 4.8 0.0 6.88 0.00 0.00 1016.9
20260505121127 16 169 4.8 0.0 6.88 0.00 0.00 1016.9
20260505121009 12 174 0.0 0.0 6.88 0.00 0.00 1017.0
20260505121001 12 174 0.0 0.0 6.88 0.00 0.00 1016.9
20260505120757 16 174 0.0 0.0 6.88 0.00 0.00 1017.1
20260505120627 16 174 0.0 0.0 6.88 0.00 0.00 1017.1
20260505120209 15 174 0.0 0.0 6.88 0.00 0.00 1017.1
20260505120127 15 174 0.0 0.0 6.88 0.00 0.00 1017.1
20260505115627 15 174 0.0 0.0 6.88 0.00 0.00 1017.1
20260505115221 13 174 0.0 0.0 6.88 0.00 0.00 1017.2
20260505115127 13 174 0.0 0.0 6.88 0.00 0.00 1017.2
20260505114627 13 174 0.0 0.0 6.88 0.00 0.00 1017.0
20260505114127 13 174 0.0 0.0 6.88 0.00 0.00 1017.0
20260505113627 12 174 0.0 0.0 6.88 0.00 0.00 1017.0
20260505113127 12 174 0.0 0.0 6.88 0.00 0.00 1016.9
20260505112627 11 174 0.0 0.0 6.88 0.00 0.00 1016.8
20260505112127 11 174 0.0 0.0 6.88 0.00 0.00 1016.9
20260505111714 11 174 0.0 0.0 6.88 0.00 0.00 1016.8
20260505111627 11 174 0.0 0.0 6.88 0.00 0.00 1016.8
20260505110713 10 174 0.0 0.0 6.88 0.00 0.00 1016.8
20260505110627 10 174 0.0 0.0 6.88 0.00 0.00 1016.8
20260505110202 10 174 0.0 0.0 6.88 0.00 0.00 1016.8
20260505110127 10 174 0.0 0.0 6.88 0.00 0.00 1016.8
20260505102214 10 174 0.0 0.0 6.88 0.00 0.00 1016.4
20260505102127 10 174 0.0 0.0 6.88 0.00 0.00 1016.4
20260505101702 10 174 0.0 0.0 6.88 0.00 0.00 1016.3
20260505101629 10 174 0.0 0.0 6.88 0.00 0.00 1016.3
20260505101210 10 174 0.0 0.0 6.88 0.00 0.00 1016.0
20260505101128 10 174 0.0 0.0 6.88 0.00 0.00 1016.0
20260505100723 10 174 0.0 0.0 6.88 0.00 0.00 1016.1
20260505100627 10 174 0.0 0.0 6.88 0.00 0.00 1016.1
20260505100236 10 174 0.0 0.0 6.88 0.00 0.00 1016.1
20260505100129 10 174 0.0 0.0 6.88 0.00 0.00 1016.1
20260505095822 10 174 0.0 0.0 6.88 0.00 0.00 1016.1
20260505095628 10 174 0.0 0.0 6.88 0.00 0.00 1016.1
20260505095128 10 174 0.0 0.0 6.88 0.00 0.00 1016.0
20260505094628 10 174 0.0 0.0 6.88 0.00 0.00 1015.9
20260505094214 10 174 0.0 0.0 6.88 0.00 0.00 1015.8
20260505094128 10 174 0.0 0.0 6.88 0.00 0.00 1015.8
20260505093628 10 174 0.0 0.0 6.88 0.00 0.00 1015.8
20260505093128 11 174 0.0 0.0 6.88 0.00 0.00 1015.9
20260505092707 11 174 0.0 0.0 6.88 0.00 0.00 1015.9
20260505092628 11 174 0.0 0.0 6.88 0.00 0.00 1015.9
20260505092243 11 174 0.0 0.0 6.88 0.00 0.00 1015.8
20260505092128 11 174 0.0 0.0 6.88 0.00 0.00 1015.8
20260505091716 11 174 0.0 0.0 6.88 0.00 0.00 1015.8
20260505091628 11 174 0.0 0.0 6.88 0.00 0.00 1015.8
20260505091128 11 174 0.0 0.0 6.88 0.00 0.00 1015.7
20260505090628 11 174 0.0 0.0 6.88 0.00 0.00 1015.8
20260505090128 11 174 0.0 0.0 6.88 0.00 0.00 1015.7
20260505085628 11 174 0.0 0.0 6.88 0.00 0.00 1015.7
20260505085128 11 174 0.0 0.0 6.88 0.00 0.00 1015.7
20260505084628 11 174 0.0 0.0 6.88 0.00 0.00 1015.7
20260505084401 11 174 0.0 0.0 6.88 0.00 0.00 1015.6
20260505084202 11 174 0.0 0.0 6.88 0.00 0.00 1015.6
20260505084128 11 174 0.0 0.0 6.88 0.00 0.00 1015.6
20260505083831 11 174 0.0 0.0 6.88 0.00 0.00 1015.7
20260505083726 11 174 0.0 0.0 6.88 0.00 0.00 1015.7
20260505083628 11 174 0.0 0.0 6.88 0.00 0.00 1015.7
20260505083502 11 174 0.0 0.0 6.88 0.00 0.00 1015.7
20260505083128 11 174 0.0 0.0 6.88 0.00 0.00 1015.7
20260505082821 11 174 0.0 0.0 6.88 0.00 0.00 1015.7
20260505082628 11 174 0.0 0.0 6.88 0.00 0.00 1015.7
20260505082128 11 174 0.0 0.0 6.88 0.00 0.00 1015.7
20260505081703 11 174 0.0 0.0 6.88 0.00 0.00 1015.7
20260505081628 11 174 0.0 0.0 6.88 0.00 0.00 1015.7
20260505081128 11 174 0.0 0.0 6.88 0.00 0.00 1015.6
20260505080628 11 174 0.0 0.0 6.88 0.00 0.00 1015.6
20260505080128 11 174 0.0 0.0 6.88 0.00 0.00 1015.6
20260505075742 11 174 0.0 0.0 6.88 0.00 0.00 1015.6
20260505075628 11 174 0.0 0.0 6.88 0.00 0.00 1015.6
20260505075211 12 174 0.0 0.0 6.88 0.00 0.00 1015.5
20260505075128 11 174 0.0 0.0 6.88 0.00 0.00 1015.5
20260505074628 11 174 0.0 0.0 6.88 0.00 0.00 1015.5
20260505074128 12 174 0.0 0.0 6.88 0.00 0.00 1015.5
20260505073732 12 174 0.0 0.0 6.88 0.00 0.00 1015.5
20260505073628 12 174 0.0 0.0 6.88 0.00 0.00 1015.5
20260505073128 12 174 0.0 0.0 6.88 0.00 0.00 1015.5
20260505072705 12 174 0.0 0.0 6.88 0.00 0.00 1015.5
20260505072628 12 174 0.0 0.0 6.88 0.00 0.00 1015.5
20260505072245 12 174 0.0 0.0 6.88 0.00 0.00 1015.4
20260505072128 12 174 0.0 0.0 6.88 0.00 0.00 1015.4
20260505071629 12 174 0.0 0.0 6.88 0.00 0.00 1015.4
20260505071625 12 174 0.0 0.0 6.88 0.00 0.00 1015.4
20260505071128 12 174 0.0 0.0 6.88 0.00 0.00 1015.4
20260505070756 12 174 0.0 0.0 6.88 0.00 0.00 1015.4
20260505070721 12 174 0.0 0.0 6.88 0.00 0.00 1015.4
20260505070628 12 174 0.0 0.0 6.88 0.00 0.00 1015.4
20260505070128 12 174 0.0 0.0 6.88 0.00 0.00 1015.5
20260505065729 12 174 0.0 0.0 6.88 0.00 0.00 1015.5
20260505065628 12 174 0.0 0.0 6.88 0.00 0.00 1015.5
20260505065202 12 174 0.0 0.0 6.88 0.00 0.00 1015.5
20260505065128 12 174 0.0 0.0 6.88 0.00 0.00 1015.5
20260505064628 12 174 0.0 0.0 6.88 0.00 0.00 1015.5
20260505064457 12 174 0.0 0.0 6.88 0.00 0.00 1015.5
20260505064453 12 174 0.0 0.0 6.88 0.00 0.00 1015.6
20260505064447 12 174 0.0 0.0 6.88 0.00 0.00 1015.5
20260505064128 12 174 0.0 0.0 6.88 0.00 0.00 1015.5
20260505063802 12 174 0.0 0.0 6.88 0.00 0.00 1015.5
20260505063748 12 174 0.0 0.0 6.88 0.00 0.00 1015.6
20260505063628 12 174 0.0 0.0 6.88 0.00 0.00 1015.6
20260505063128 12 174 0.0 0.0 6.88 0.00 0.00 1015.5
20260505062730 12 174 0.0 0.0 6.88 0.00 0.00 1015.4
20260505062628 12 174 0.0 0.0 6.88 0.00 0.00 1015.4
20260505062128 12 174 0.0 0.0 6.88 0.00 0.00 1015.6
20260505062111 12 174 0.0 0.0 6.88 0.00 0.00 1015.5
20260505061747 12 174 0.0 0.0 6.88 0.00 0.00 1015.5
20260505061706 12 174 0.0 0.0 6.88 0.00 0.00 1015.5
20260505061628 12 174 0.0 0.0 6.88 0.00 0.00 1015.5
20260505061128 12 174 0.0 0.0 6.88 0.00 0.00 1015.6
20260505060628 12 174 0.0 0.0 6.88 0.00 0.00 1015.6
20260505060505 12 174 0.0 0.0 6.88 0.00 0.00 1015.7
20260505060407 12 174 0.0 0.0 6.88 0.00 0.00 1015.7
20260505060128 12 174 0.0 0.0 6.88 0.00 0.00 1015.7
20260505055704 12 174 0.0 0.0 6.88 0.00 0.00 1015.6
20260505055628 12 174 0.0 0.0 6.88 0.00 0.00 1015.6
20260505055128 13 174 0.0 0.0 6.88 0.00 0.00 1015.7
20260505054628 13 174 0.0 0.0 6.88 0.00 0.00 1015.7
20260505054128 13 174 0.0 0.0 6.88 0.00 0.00 1015.7
20260505053628 13 174 0.0 0.0 6.88 0.00 0.00 1015.9
20260505053128 13 174 0.0 0.0 6.88 0.00 0.00 1015.9
20260505052628 13 174 0.0 0.0 6.88 0.00 0.00 1016.0
20260505052546 13 174 0.0 0.0 6.88 0.00 0.00 1016.0
20260505052542 13 174 0.0 0.0 6.88 0.00 0.00 1016.0
20260505052201 13 174 0.0 0.0 6.88 0.00 0.00 1016.0
20260505052129 13 174 0.0 0.0 6.88 0.00 0.00 1016.0
20260505051839 13 174 0.0 0.0 6.88 0.00 0.00 1016.0
20260505051628 13 174 0.0 0.0 6.88 0.00 0.00 1016.0
20260505051257 13 174 0.0 0.0 6.88 0.00 0.00 1016.0
20260505051128 13 174 0.0 0.0 6.88 0.00 0.00 1016.0
20260505050742 13 174 0.0 0.0 6.88 0.00 0.00 1016.1
20260505050628 13 174 0.0 0.0 6.88 0.00 0.00 1016.1
20260505050130 13 174 0.0 0.0 6.88 0.00 0.00 1016.1
20260505041628 15 174 0.0 0.0 6.88 0.00 0.00 1016.1
20260505041206 15 174 0.0 0.0 6.88 0.00 0.00 1016.2
20260505041128 15 174 0.0 0.0 6.88 0.00 0.00 1016.2
20260505040628 15 174 0.0 0.0 6.88 0.00 0.00 1016.1
20260505040130 15 174 0.0 0.0 6.88 0.00 0.00 1016.1
20260505035636 15 174 0.0 0.0 6.88 0.00 0.00 1016.1
20260505035128 15 174 0.0 0.0 6.88 0.00 0.00 1016.1
20260505034701 15 174 0.0 0.0 6.88 0.00 0.00 1016.1
20260505034628 15 174 0.0 0.0 6.88 0.00 0.00 1016.1
20260505034202 15 174 0.0 0.0 6.88 0.00 0.00 1016.2
20260505034128 15 174 0.0 0.0 6.88 0.00 0.00 1016.2
20260505033628 15 174 0.0 0.0 6.88 0.00 0.00 1016.2
20260505033128 15 174 0.0 0.0 6.88 0.00 0.00 1016.2
20260505032757 15 174 0.0 0.0 6.88 0.00 0.00 1016.2
20260505032628 15 174 0.0 0.0 6.88 0.00 0.00 1016.2
20260505032128 15 174 0.0 0.0 6.88 0.00 0.00 1016.2
20260505031628 15 174 0.0 0.0 6.88 0.00 0.00 1016.2
20260505031128 16 174 0.0 0.0 6.88 0.00 0.00 1016.2
20260505030628 16 174 0.0 0.0 6.88 0.00 0.00 1016.2
20260505030128 16 174 0.0 0.0 6.88 0.00 0.00 1016.2
20260505025628 16 174 0.0 0.0 6.88 0.00 0.00 1016.2
20260505025128 16 198 0.0 0.0 6.88 0.00 0.00 1016.2
20260505024628 16 198 0.0 0.0 6.88 0.00 0.00 1016.1
20260505024204 16 163 0.0 0.0 6.88 0.00 0.00 1016.0
20260505024128 16 163 0.0 0.0 6.88 0.00 0.00 1016.0
20260505023628 16 150 0.0 0.0 6.88 0.00 0.00 1015.9
20260505023129 16 150 0.0 0.0 6.88 0.00 0.00 1015.9
20260505022628 16 174 4.8 0.0 6.88 0.00 0.00 1015.8
20260505022128 16 176 0.0 0.0 6.88 0.00 0.00 1015.8
20260505021628 16 176 0.0 0.0 6.88 0.00 0.00 1015.7
20260505021202 17 176 0.0 0.0 6.88 0.00 0.00 1015.6
20260505021129 17 176 0.0 0.0 6.88 0.00 0.00 1015.6
20260505020851 17 176 0.0 0.0 6.88 0.00 0.00 1015.7
20260505020629 17 176 0.0 0.0 6.88 0.00 0.00 1015.7
20260505020129 17 176 0.0 0.0 6.88 0.00 0.00 1015.6
20260505015629 17 127 0.0 0.0 6.88 0.00 0.00 1015.6
20260505015129 17 127 0.0 0.0 6.88 0.00 0.00 1015.5
20260505014629 17 127 0.0 0.0 6.88 0.00 0.00 1015.5
20260505014129 17 127 0.0 0.0 6.88 0.00 0.00 1015.5
20260505013629 17 127 0.0 0.0 6.88 0.00 0.00 1015.3
20260505013129 17 127 0.0 0.0 6.88 0.00 0.00 1015.2
20260505012704 17 127 0.0 0.0 6.88 0.00 0.00 1015.1
20260505012629 17 127 0.0 0.0 6.88 0.00 0.00 1015.1
20260505012129 18 127 0.0 0.0 6.88 0.00 0.00 1015.1
20260505011629 18 127 0.0 0.0 6.88 0.00 0.00 1015.0
20260505011129 18 127 0.0 0.0 6.88 0.00 0.00 1014.9
20260505010821 18 127 0.0 0.0 6.88 0.00 0.00 1014.9
20260505010629 18 127 0.0 0.0 6.88 0.00 0.00 1014.9
20260505010129 18 127 0.0 0.0 6.88 0.00 0.00 1014.8
20260505005629 18 127 0.0 0.0 6.88 0.00 0.00 1014.7
20260505005129 18 127 0.0 0.0 6.88 0.00 0.00 1014.7
20260505004629 19 127 0.0 0.0 6.88 0.00 0.00 1014.8
20260505004129 19 127 0.0 0.0 6.88 0.00 0.00 1014.6
20260505003629 19 127 0.0 0.0 6.88 0.00 0.00 1014.6
20260505003129 20 127 0.0 0.0 6.88 0.00 0.00 1014.6
20260505002629 20 127 0.0 0.0 6.88 0.00 0.00 1014.5
20260505002129 20 127 0.0 0.0 6.88 0.00 0.00 1014.4
20260505001629 20 127 0.0 0.0 6.88 0.00 0.00 1014.4
20260505001129 20 169 4.8 0.0 6.88 0.00 0.00 1014.4
20260505000629 21 149 0.0 0.0 6.88 0.00 0.00 1014.3
20260505000129 21 149 0.0 0.0 6.88 0.00 0.00 1014.3
20260504235629 22 149 0.0 0.0 6.88 0.00 0.00 1014.2
20260504235129 22 149 0.0 0.0 6.88 0.00 0.00 1014.2
20260504234629 22 184 0.0 0.0 6.88 0.00 0.00 1014.1
20260504234129 23 184 0.0 0.0 6.88 0.00 0.00 1014.1
20260504233629 24 184 0.0 0.0 6.88 0.00 0.00 1014.1
20260504233129 25 184 0.0 0.0 6.88 0.00 0.00 1014.0
20260504232733 25 129 0.0 0.0 6.88 0.00 0.00 1014.0
20260504232629 25 129 0.0 0.0 6.88 0.00 0.00 1014.0
20260504232129 25 129 0.0 0.0 6.88 0.00 0.00 1013.9
20260504231629 25 187 0.0 0.0 6.88 0.00 0.00 1013.9
20260504231202 25 225 8.0 0.0 6.88 0.00 0.00 1013.9
20260504231129 25 225 8.0 0.0 6.88 0.00 0.00 1013.9
20260504230629 26 218 0.0 0.0 6.88 0.00 0.00 1013.8
20260504230129 26 187 0.0 0.0 6.88 0.00 0.00 1013.8
20260504225629 26 159 1.6 0.0 6.88 0.00 0.00 1013.8
20260504225129 26 170 0.0 0.0 6.88 0.00 0.00 1013.7
20260504224629 27 158 1.6 0.0 6.88 0.00 0.00 1013.8
20260504224129 27 330 0.0 0.0 6.88 0.00 0.00 1013.9
20260504223629 27 176 0.0 0.0 6.88 0.00 0.00 1013.9
20260504223129 27 188 0.0 0.0 6.88 0.00 0.00 1013.8
20260504222629 27 169 3.2 0.0 6.88 0.00 0.00 1013.8
20260504222129 28 212 8.0 0.0 6.88 0.00 0.00 1013.8
20260504221629 28 188 0.0 0.0 6.88 0.00 0.00 1013.8
20260504221129 28 181 0.0 0.0 6.88 0.00 0.00 1013.9
20260504220629 28 287 0.0 0.0 6.88 0.00 0.00 1013.9
20260504220129 28 217 0.0 0.0 6.88 0.00 0.00 1013.8
20260504215629 28 191 0.0 0.0 6.88 0.00 0.00 1013.8
20260504215129 28 160 0.0 0.0 6.88 0.00 0.00 1013.8
20260504214629 28 172 8.0 0.0 6.88 0.00 0.00 1013.7
20260504214130 28 173 6.4 0.0 6.88 0.00 0.00 1013.7
20260504213629 29 179 0.0 0.0 6.88 0.00 0.00 1013.7
20260504213129 29 104 0.0 0.0 6.88 0.00 0.00 1013.8
20260504212629 29 188 4.8 0.0 6.88 0.00 0.00 1013.8
20260504212129 30 195 4.8 0.0 6.88 0.00 0.00 1013.8
20260504211629 29 188 4.8 0.0 6.88 0.00 0.00 1013.8
20260504211129 28 273 0.0 0.0 6.88 0.00 0.00 1013.9
20260504210629 29 201 0.0 0.0 6.88 0.00 0.00 1013.9
20260504210129 28 191 0.0 0.0 6.88 0.00 0.00 1013.9
20260504205629 27 210 0.0 0.0 6.88 0.00 0.00 1013.9
20260504205130 30 159 0.0 0.0 6.88 0.00 0.00 1013.9
20260504204629 30 190 8.0 0.0 6.88 0.00 0.00 1013.9
20260504204129 30 195 0.0 0.0 6.88 0.00 0.00 1014.0
20260504203629 30 146 0.0 0.0 6.88 0.00 0.00 1014.0
20260504203129 30 177 0.0 0.0 6.88 0.00 0.00 1014.1
20260504202629 29 274 0.0 0.0 6.88 0.00 0.00 1014.2
20260504202129 28 259 0.0 0.0 6.88 0.00 0.00 1014.2
20260504201629 30 167 4.8 0.0 6.88 0.00 0.00 1014.2
20260504201129 30 162 9.7 0.0 6.88 0.00 0.00 1014.1
20260504200629 30 181 0.0 0.0 6.88 0.00 0.00 1014.2
20260504200129 29 221 0.0 0.0 6.88 0.00 0.00 1014.2
20260504195630 28 176 8.0 0.0 6.88 0.00 0.00 1014.3
20260504195129 30 180 4.8 0.0 6.88 0.00 0.00 1014.4
20260504194629 29 184 0.0 0.0 6.88 0.00 0.00 1014.4
20260504194129 28 127 0.0 0.0 6.88 0.00 0.00 1014.4
20260504193630 29 158 0.0 0.0 6.88 0.00 0.00 1014.4
20260504193129 28 158 0.0 0.0 6.88 0.00 0.00 1014.6
20260504192629 29 177 4.8 0.0 6.88 0.00 0.00 1014.7
20260504192129 28 122 0.0 0.0 6.88 0.00 0.00 1014.7
20260504191629 28 219 4.8 0.0 6.88 0.00 0.00 1014.7
20260504191129 28 138 0.0 0.0 6.88 0.00 0.00 1014.8
20260504190629 27 166 0.0 0.0 6.88 0.00 0.00 1015.0
20260504190129 28 177 0.0 0.0 6.88 0.00 0.00 1015.1
20260504185629 27 239 0.0 0.0 6.88 0.00 0.00 1015.0
20260504185129 27 259 0.0 0.0 6.88 0.00 0.00 1015.0
20260504184629 27 273 4.8 0.0 6.88 0.00 0.00 1015.1